Vorticity
nan nan nan nan nan nan nan nan nan nan nan nan nan nan nan nan nan nan nan nan nan nan nan nan nan nan nan nan nan nan nan nan nan nan nan nan nan nan nan nan nan nan nan nan nan nan nan
nan 8 7 7 6 6 6 7 7 6 7 6 6 6 6 6 7 8 7 7 7 8 8 8 9 14 13 10 11 15 9 -0 1 4 4 4 2 8 6 7 10 7 8 9 8 8 nan
nan 7 7 7 6 7 8 6 6 6 4 6 7 8 8 7 7 7 7 8 8 8 10 11 12 14 7 9 15 12 5 1 3 5 3 7 6 5 9 11 10 6 5 5 8 6 nan
nan 6 6 7 8 7 6 6 6 6 7 8 8 8 8 9 9 8 8 9 9 12 14 13 12 9 8 10 13 9 3 4 7 6 3 4 8 10 8 8 9 7 7 7 9 6 nan
nan 7 6 6 8 7 5 5 7 8 8 8 8 8 8 8 8 9 10 13 19 15 14 13 9 9 11 8 13 10 3 5 10 6 5 5 5 10 11 6 9 2 5 14 9 8 nan
nan 7 5 5 6 7 7 8 8 7 7 8 8 7 8 9 8 10 18 22 18 15 11 5 11 14 11 9 11 10 9 6 6 7 4 10 5 8 8 1 0 7 10 7 11 14 nan
nan 7 6 5 6 8 8 8 8 7 7 8 7 7 9 10 8 12 24 24 12 10 3 3 4 6 6 9 10 9 10 7 5 1 8 5 1 5 7 9 5 7 11 10 13 10 nan
nan 8 6 7 7 7 7 8 8 7 7 7 6 7 8 9 12 19 18 10 8 8 14 15 2 4 2 6 11 12 8 5 3 2 7 2 2 6 7 6 12 13 11 14 8 9 nan
nan 6 5 5 7 7 7 7 8 8 7 7 8 8 9 8 21 20 13 9 4 11 12 16 15 12 11 4 10 13 1 3 4 4 1 2 8 6 2 10 15 11 11 7 9 10 nan
nan 5 5 6 6 7 7 7 7 8 9 9 9 9 7 20 22 13 12 -0 10 12 13 17 12 16 10 5 11 12 7 7 5 8 8 6 13 8 6 11 10 15 13 12 8 1 nan
nan 8 6 6 6 6 7 7 7 7 8 9 10 10 14 19 14 8 3 8 15 9 7 12 10 8 19 11 5 16 9 7 10 7 9 7 15 12 4 7 11 15 13 10 6 6 nan
nan 11 9 8 6 5 7 7 7 8 8 8 10 11 21 19 7 5 4 14 13 7 14 7 9 10 8 12 1 5 11 4 12 14 5 3 2 7 11 2 16 8 5 3 5 11 nan
nan 11 12 11 8 5 6 7 7 7 8 8 10 18 22 6 6 7 14 14 7 8 8 10 7 12 10 13 11 1 5 6 4 8 9 11 0 2 8 3 7 4 -1 2 10 7 nan
nan 13 16 13 9 8 7 7 7 8 8 8 11 29 18 5 6 13 14 9 6 9 5 3 10 10 14 11 16 9 1 7 6 1 7 14 11 11 5 8 7 10 1 6 5 8 nan
nan 12 12 12 10 10 9 9 8 7 6 13 27 25 8 7 12 16 12 4 4 5 11 9 6 13 13 7 17 21 9 7 6 9 4 9 9 10 13 15 12 8 7 4 11 9 nan
nan 7 7 8 9 9 8 8 8 8 11 20 27 10 9 11 16 12 10 8 -0 2 8 12 11 9 14 18 10 12 14 9 10 10 5 1 16 12 9 6 4 7 15 13 5 4 nan
nan 7 8 9 9 9 8 9 8 8 10 27 22 6 9 11 12 14 11 13 13 1 3 7 10 8 7 12 16 7 8 13 16 9 10 7 9 6 4 8 6 6 3 -3 9 13 nan
nan 8 9 7 9 10 9 9 9 7 22 27 14 10 8 10 9 9 11 3 11 17 4 1 4 6 10 10 17 17 9 15 15 10 13 7 5 8 2 4 7 12 17 6 6 4 nan
nan 9 9 9 9 9 8 8 9 11 20 15 11 14 10 11 14 9 9 7 6 10 10 8 4 1 3 4 8 16 14 13 17 17 13 7 3 11 12 4 2 13 10 8 8 14 nan
nan 8 9 9 9 8 8 9 9 9 18 19 11 16 11 7 8 8 9 13 12 13 11 10 10 7 4 3 0 3 7 7 9 13 14 11 7 3 10 5 11 8 6 12 8 8 nan
nan 9 9 9 9 9 8 8 9 9 18 22 9 8 9 8 3 6 9 10 9 12 11 13 16 9 7 7 8 5 6 6 8 17 13 12 8 9 5 7 7 12 14 10 8 5 nan
nan 9 8 9 9 9 10 9 8 8 22 24 8 9 8 9 8 10 12 10 10 17 11 11 9 16 17 12 10 11 10 5 8 12 15 10 10 13 10 9 3 7 9 10 8 9 nan
nan 9 9 9 9 9 9 10 10 12 24 19 15 9 7 11 11 11 8 7 6 12 17 8 5 13 13 12 13 11 4 4 8 6 18 19 13 11 11 11 10 13 9 6 7 12 nan
nan 9 9 9 9 10 10 10 10 10 18 15 11 11 11 8 10 6 5 9 10 6 8 7 8 10 14 9 12 19 19 11 9 11 8 12 16 14 12 14 10 10 26 14 8 9 nan
nan 9 10 9 9 9 10 13 13 9 12 14 9 12 10 9 9 16 11 8 15 18 13 8 8 8 8 16 16 16 18 17 15 19 11 7 10 12 14 9 16 10 12 14 13 11 nan
nan 9 9 10 10 10 10 10 13 14 13 13 11 11 8 12 6 6 14 11 13 16 17 19 14 7 14 18 13 15 13 14 13 10 17 14 5 9 15 14 11 22 17 12 9 13 nan
nan 9 9 9 9 9 9 9 9 11 15 16 15 10 7 10 6 3 2 4 10 12 13 12 14 20 17 14 14 16 13 14 13 3 9 12 12 12 5 12 6 14 22 18 11 10 nan
nan 8 7 8 9 10 10 9 9 9 12 16 14 14 11 8 9 9 7 6 4 5 5 10 16 14 12 17 18 13 16 16 16 18 9 3 7 11 9 11 12 6 10 0 2 9 nan
nan nan nan nan nan nan nan nan nan nan nan nan nan nan nan nan nan nan nan nan nan nan nan nan nan nan nan nan nan nan nan nan nan nan nan nan nan nan nan nan nan nan nan nan nan nan nan
CAPE
8 8 5 5 3 4 4 2 3 1 4 1 2 1 1 1 1 1 1 1 1 0 0 0 0 0 0 0 0 797 2363 1852 907 965 995 881 732 877 579 687 889 508 667 737 724 671 711
8 8 6 6 3 6 8 2 3 2 2 0 0 0 0 1 1 0 0 1 1 0 0 0 0 0 0 0 88 918 825 749 727 833 678 899 687 727 563 287 624 530 563 691 880 879 777
4 2 7 4 4 4 6 5 1 0 0 0 2 3 4 4 3 2 1 1 1 0 0 0 0 0 0 0 132 592 498 456 450 386 413 488 542 636 476 258 306 467 521 669 825 932 914
6 6 3 1 4 5 5 0 0 0 1 3 4 1 0 0 1 2 2 2 0 0 0 0 0 0 0 0 126 395 385 291 401 517 395 190 234 469 419 221 389 441 476 457 700 833 728
5 8 8 5 2 0 0 0 0 2 3 1 1 1 1 0 3 1 1 0 0 0 0 0 0 0 0 0 0 5 241 0 61 221 146 56 129 114 18 190 317 329 190 254 515 661 634
6 8 3 2 3 0 0 2 2 4 0 0 0 1 0 3 3 1 0 0 0 0 0 0 0 0 0 0 0 0 24 0 0 7 149 68 18 0 0 16 62 12 32 208 248 580 626
7 8 9 3 0 0 2 2 2 3 0 1 2 2 1 3 1 0 0 0 0 0 0 0 0 0 0 0 0 0 0 0 0 0 0 0 0 7 0 0 0 0 0 27 228 409 592
1 8 7 1 0 0 0 0 1 2 3 0 0 2 2 2 1 0 0 0 0 0 0 0 0 0 0 0 0 0 0 0 0 0 0 0 0 0 0 0 0 0 0 0 209 412 488
6 5 4 0 0 1 0 0 0 0 1 0 0 2 0 0 0 0 0 0 0 0 0 0 0 0 0 0 0 0 0 0 0 0 0 0 0 0 0 0 0 0 0 0 50 350 396
0 0 0 0 0 0 0 0 0 0 0 0 0 0 1 1 0 0 0 0 0 0 0 0 0 0 0 0 0 0 0 0 0 0 0 0 0 0 0 0 0 5 0 0 138 109 95
3 1 0 0 0 0 0 0 0 0 0 0 0 0 1 1 0 0 0 0 0 0 0 0 0 0 0 0 0 0 0 0 0 0 0 0 0 0 0 0 0 0 0 3 4 13 0
9 9 8 6 3 0 0 0 0 0 0 0 0 0 1 0 0 0 0 0 0 0 0 0 0 0 0 0 0 0 0 0 0 0 0 0 0 0 0 0 0 0 0 0 0 0 0
10 9 11 10 3 1 0 0 0 0 0 0 0 0 0 0 0 0 0 0 0 0 0 0 0 0 0 0 0 0 0 0 0 0 0 0 0 0 0 0 0 0 0 0 0 0 4
9 14 16 6 4 2 0 0 0 0 0 0 0 0 0 0 0 0 0 0 0 0 0 0 0 0 0 0 0 0 0 0 0 0 0 0 0 0 0 0 0 0 0 0 0 1 2
16 24 11 4 2 3 0 0 0 0 0 0 0 0 0 0 0 0 0 0 0 0 0 0 0 0 0 0 0 0 0 0 0 0 0 0 0 0 0 0 0 0 0 0 0 0 0
14 6 8 5 2 1 1 0 0 0 0 0 0 0 0 0 0 0 0 0 0 0 0 0 0 0 0 0 0 0 0 0 0 0 0 0 0 0 0 0 0 0 0 0 0 0 0
9 1 1 6 5 3 0 0 0 0 0 0 0 0 0 0 0 0 0 0 0 0 0 0 0 0 0 0 0 0 0 0 0 0 0 0 0 0 0 0 0 0 0 0 0 0 0
12 10 5 3 3 4 3 0 0 0 0 0 0 0 0 0 0 0 0 0 0 0 0 0 0 0 0 0 0 0 0 0 0 0 0 0 0 0 0 0 0 0 0 0 0 0 0
8 11 15 14 16 12 8 1 0 0 0 0 0 0 0 0 0 0 0 0 0 0 0 0 0 0 0 0 0 0 0 0 0 0 0 0 0 0 0 0 0 0 0 0 0 0 0
6 11 10 13 19 15 9 4 0 0 0 0 0 0 0 0 0 0 0 0 0 0 0 0 0 0 0 0 0 0 0 0 0 0 0 0 0 0 0 0 0 0 0 0 0 0 0
11 8 5 4 8 16 11 5 0 0 0 0 0 0 0 0 0 0 0 0 0 0 0 0 0 0 0 0 0 0 0 0 0 0 0 0 0 0 0 0 0 0 0 0 0 0 0
8 9 11 14 7 6 17 13 2 0 0 0 0 0 0 0 0 0 0 0 1 0 0 0 0 0 0 0 0 0 0 0 0 0 0 0 0 0 0 0 0 0 0 0 0 0 0
11 12 11 10 11 13 13 17 12 0 0 0 0 0 0 0 0 0 0 5 31 128 51 3 0 14 0 0 0 0 0 0 0 0 0 0 0 0 0 0 0 0 0 0 0 0 0
9 9 12 14 8 7 10 13 15 10 0 0 0 0 0 0 0 0 0 3 0 39 111 153 118 89 0 0 0 0 0 0 0 0 0 0 0 0 0 0 0 0 0 0 0 0 0
10 13 12 11 12 20 19 19 19 14 8 2 1 0 0 0 0 0 0 2 3 33 108 168 152 118 0 0 0 0 0 0 0 0 0 0 0 0 0 0 0 0 0 0 0 0 0
11 13 11 9 12 16 18 15 28 25 5 6 3 5 6 8 0 5 11 20 71 150 142 162 272 178 41 0 35 0 0 0 0 4 0 0 0 0 0 0 0 0 0 0 0 0 0
10 5 7 9 9 11 14 16 22 23 26 13 5 11 46 20 0 0 3 54 177 431 494 386 398 358 121 136 128 0 0 5 112 92 2 0 9 6 39 3 0 0 0 0 0 0 6
9 4 10 10 11 8 5 11 18 19 26 22 11 12 9 11 0 0 0 0 4 94 150 343 395 355 236 255 227 42 36 167 167 196 169 94 95 50 133 155 57 11 0 0 165 110 341
7 8 7 8 8 10 7 4 7 11 15 32 16 14 39 27 0 0 0 0 0 2 48 388 400 137 148 277 500 414 358 462 224 389 465 370 266 255 176 197 388 175 372 345 133 113 265